Find Starlink 33804

NORAD ID: 63511 Int'l Des: 2025-071 Owner: SPXS Country: US Constellation: starlink operational
LEOCIRCULAR

現在のビュー

3D地球を読み込み中...

About Starlink 33804

Starlink 33804 (NORAD 63511) is a starlink constellation satellite (v2 mini) launched Apr 7, 2025 by SPXS of US. It operates in LEO, CIRCULAR orbit with a mass of 575.00 kg.

Starlink 33804について

説明を読み込み中...

次回通過

Passes for default location (London). Set your location on the main map for personalized predictions.

高度履歴

Loading altitude history...

軌道要素

1 63511U 25071U 26190.94660828 .00002708 00000-0 98986-4 0 9993
2 63511 53.1585 291.6158 0001515 134.8375 225.2750 15.31704252 71124
Epoch: Jul 9, 2026 • Age: 18 hours

現在のステータス

高度 478.7 km
遠地点 / 近地点 N/A
速度 7.63 km/s
衛星直下点 -27.58°S, 50.83°W
打ち上げ日 Apr 7, 2025
運用期間 1.2 years
タイプ internet

技術仕様

分類 Payload
質量 575.00 kg
乾燥質量 530.00 kg
総質量 575.00 kg
長さ 0.30 m
直径 4.10 m
スパン 29.00 m
形状 Box + pan
製造者 SPXS
バスタイプ Starlink V2MO
フェーズステータス In Orbit
所有者/国 SPXS/US

Most Searched